Regional Weather Roundup
Issued by NWS

Home | Current Version | Previous Version | Text Only | Print | Product List | Glossary On
Versions: 1 2 3 4 5 6 7 8 9 10 11 12 13 14 15 16 17 18 19 20 21 22 23 24 25 26 27 28 29 30 31 32 33 34 35 36 37 38 39 40 41 42 43 44 45 46 47 48 49 50
000
ASUS42 KTBW 280710
RWRFL
FLORIDA REGIONAL WEATHER ROUNDUP
NATIONAL WEATHER SERVICE TAMPA BAY RUSKIN FL
200 AM EST SAT FEB 28 2015

NOTE: "FAIR" INDICATES FEW OR NO CLOUDS BELOW 12,000 FEET WITH NO
SIGNIFICANT WEATHER AND/OR OBSTRUCTIONS TO VISIBILITY.


FLZ001>010-012>015-112-114-115-280800-
PANHANDLE FLORIDA

CITY           SKY/WX    TMP DP  RH WIND       PRES   REMARKS
PENSACOLA      MOCLDY    43  29  57 N12       30.38S WCI  37
PENSACOLA NAS  MOCLDY    43  29  57 NE13      30.37S WCI  36
MILTON NAS     MOCLDY    41  28  60 NE7       30.39R WCI  36
CRESTVIEW      MOCLDY    41  29  62 NE7       30.41R WCI  36
DUKE FIELD     CLOUDY    41  29  62 N8        30.38R WCI  36
VALPARAISO     MOCLDY    43  29  58 NE12      30.37R WCI  37
MARY ESTHER    MOCLDY    43  26  50 NE10      30.37R WCI  38
TRI COUNTY     FAIR      44  33  65 N7        30.40R WCI  40
PANAMA CITY    FAIR      46  40  79 N3        30.37R
TYNDALL AFB    CLOUDY    47  41  79 NE7       30.35S WCI  43
APALACHICOLA   CLOUDY    50  39  66 NE10      30.34S

STATION/POSITION SKY/WX   TEMP    WIND        PRES    WAVE   SWELL
                          AIR SEA DIR/SP/G            HT/PER HT/PER
                          (F)     (DEG/KT/KT) (MB)    (FT/S) (FT/S)
30.1N   87.6W              51 62   40/ 21/ 25 1027.1F   4/ 5
29.2N   88.2W              56 69   50/ 21/ 29 1026.9F   6/ 6
28.7N   86.0W              57 67   60/ 19/ 25 1025.8    7/ 7
PANAMA CITY BEAC           48 56   60/  4/  8 1028.0R
CAPE SAN BLAS    NOT AVBL
TOWER C                    52      60/ 24/ 26 1026.5S
28.5N   84.5W              56 65   50/ 19/ 23 1025.1R   7/ 6

$$
FLZ011-016>038-118-127-128-134-139-239-280800-
NORTH FLORIDA

CITY           SKY/WX    TMP DP  RH WIND       PRES   REMARKS
MARIANNA       CLOUDY    44  41  89 N3        30.38R
TALLAHASSEE    CLOUDY    49  38  65 NE7       30.37S
PERRY          CLOUDY    48  38  66 NE8       30.36R WCI  45
CROSS CITY       N/A     50  41  71 NE9       30.33R
LAKE CITY      CLOUDY    46  41  81 NE9G17    30.34S WCI  42
GAINESVILLE    CLOUDY    50  42  74 NE10      30.32S
MAYPORT NAS    CLOUDY    53  48  83 N15G25    30.33F
JACKSONVILLE   CLOUDY    52  45  77 NE13      30.34F
JAX NAS        CLOUDY    56  45  66 N15       30.34F
JAX CRAIG      CLOUDY    53  46  77 NE12G22   30.34F
JAX CECIL      CLOUDY    50  45  81 N12       30.34S
FERNANDINA BEA CLOUDY    55  46  71 NE15G21   30.34S
ST AUGUSTINE   LGT RAIN  55  51  86 N15       30.32F

STATION/POSITION SKY/WX   TEMP    WIND        PRES    WAVE   SWELL
                          AIR SEA DIR/SP/G            HT/PER HT/PER
                          (F)     (DEG/KT/KT) (MB)    (FT/S) (FT/S)
SHELL POINT      NOT AVBL
KEATON BEACH               49      50/ 10/ 14 1027.0F
CEDAR KEY                  50      40/ 12/ 15 1026.2F
FERNANDINA                 52 55   30/  9/ 15 1027.2
30.7N   81.3W                 53                N/A     6/ 6   2/11
MAYPORT                    53 56   30/ 17/ 21 1027.3
31.4N   80.9W              53 52   40/ 17/ 21 1028.4F   6/ 6   2/13
ST AUGUSTINE               55     360/ 19/ 21 1026.5F

$$
FLZ040-043>046-052-053-057-058-063-144-280800-
INTERIOR CENTRAL FLORIDA

CITY           SKY/WX    TMP DP  RH WIND       PRES   REMARKS
OCALA          CLOUDY    54  45  71 NE7       30.30R
THE VILLAGES     N/A     54  50  87 N8        30.18S HAZE
LEESBURG       CLOUDY    55  50  83 N12       30.28S
SANFORD        CLOUDY    58  54  86 N9        30.26S
ORLANDO EXEC   CLOUDY    57  53  86 CALM      30.25S
ORLANDO INTL   CLOUDY    58  55  90 N8        30.25S
WINTER HAVEN   CLOUDY    55  53  93 N9        30.26S
LAKELAND       CLOUDY    54  52  94 N10       30.25S
BARTOW         CLOUDY    55  54  94 N7        30.25S
OKEECHOBEE     CLOUDY    61  61 100 N6        30.20F FOG

$$
FLZ041-047-054-059-064-141-147-280800-
EAST CENTRAL FLORIDA

CITY           SKY/WX    TMP DP  RH WIND       PRES   REMARKS
DAYTONA BEACH  MOCLDY    59  57  93 N7        30.27S
DELAND         CLOUDY   N/A N/A N/A N6        30.28S
JFK SPACE CTR  CLOUDY    61  59  94 E6        30.22F
CAPE CANAVERAL MOCLDY    65  63  92 E7        30.22F
PATRICK AFB    CLOUDY    65  64  98 NE16      30.21F
MELBOURNE      CLOUDY    66  63  90 NE13      30.21F
VERO BEACH     CLOUDY    68  61  78 NE9       30.20F
FT PIERCE      CLOUDY    69  65  86 E6        30.19F
STUART         CLOUDY    70  64  83 E15G24    30.19F

STATION/POSITION SKY/WX   TEMP    WIND        PRES    WAVE   SWELL
                          AIR SEA DIR/SP/G            HT/PER HT/PER
                          (F)     (DEG/KT/KT) (MB)    (FT/S) (FT/S)
28.5N   80.2W              68 69   60/ 19/ 23 1023.5F
28.9N   78.5W              68 71   70/ 21/ 25 1023.9F   9/ 7   3/11
TRIDENT PIER     NOT AVBL
28.4N   80.5W                 63                N/A     4/ 6   2/11
27.6N   80.2W                 71                N/A     6/ 7   2/13

$$
FLZ050-056-061-142-242-148-248-149-249-151-251-155-255-
160-260-280800-
WEST CENTRAL FLORIDA

CITY           SKY/WX    TMP DP  RH WIND       PRES   REMARKS
CRYSTAL RIVER  CLOUDY    52  43  71 NE12      30.28S
INVERNESS      CLOUDY    54  45  71 NE10G18   30.29S
BROOKSVILLE    CLOUDY    53  47  79 NE10      30.27S
ZEPHYRHILLS    CLOUDY    54  50  87 CALM      30.27S
CLEARWATER     CLOUDY    56  52  86 NE10      30.25S
TAMPA INTL     CLOUDY    56  49  77 NE7       30.25S
TAMPA EXEC     CLOUDY    55  50  82 NE8G16    30.26S
PLANT CITY     CLOUDY   N/A N/A N/A NE9       30.26F
MACDILL AFB    CLOUDY    55  53  92 NE10      30.24S
PETER O KNIGHT CLOUDY    57  52  82 NE13      30.25R
ST PETERSBURG  CLOUDY    57  53  86 NE15      30.24S
SARASOTA       CLOUDY    57  52  83 NE10      30.21S
VENICE         CLOUDY    57  57 100 NE14      30.21F

STATION/POSITION SKY/WX   TEMP    WIND        PRES    WAVE   SWELL
                          AIR SEA DIR/SP/G            HT/PER HT/PER
                          (F)     (DEG/KT/KT) (MB)    (FT/S) (FT/S)
CEDAR KEY                  50      40/ 12/ 15 1026.2F
28.5N   84.5W              56 65   50/ 19/ 23 1025.1R   7/ 6
27.3N   84.3W                 69                N/A     6/ 7
CLEARWATER BEACH           56 61   50/  8/ 12 1024.1
MIDDLE TAMPA BAY           57      50/ 17/ 19 1024.2
VENICE                     58 62   40/  8/ 10 1022.5F

$$
FLZ066-069-070-075>078-162-262-165-265-280800-
SOUTHWEST FLORIDA AND KEYS

CITY           SKY/WX    TMP DP  RH WIND       PRES   REMARKS
PUNTA GORDA    CLOUDY    58  57  97 NE10      30.22S FOG
FT MYERS       CLOUDY    59  58  96 NE8       30.18S FOG
SOUTHWEST INTL CLOUDY    59  58  96 NE8       30.19S FOG
NAPLES         CLOUDY    61  60  97 NE12      30.16F FOG
MARCO ISLAND   CLOUDY    61  57  88 NE9       30.16F
IMMOKALEE      CLOUDY   N/A N/A N/A CALM      30.19F VSB 3/4
MARATHON       MOCLDY    72  71  97 NE15      30.12F
KEY WEST NAS   CLOUDY    70  68  93 NE13      30.12F
KEY WEST INTL  CLOUDY    70  69  97 NE10      30.13F

STATION/POSITION SKY/WX   TEMP    WIND        PRES    WAVE   SWELL
                          AIR SEA DIR/SP/G            HT/PER HT/PER
                          (F)     (DEG/KT/KT) (MB)    (FT/S) (FT/S)
VENICE                     58 62   40/  8/ 10 1022.5F
NAPLES                     60 66   60/  8/ 11 1021.4
26.0N   85.6W              69 77   80/ 14/ 17 1021.8S   6/ 7   5/ 7
DRY TORTUGAS               66      60/ 17/ 18 1020.5F
SAND KEY                   71      50/ 13/ 15 1020.0F
SOMBRERO KEY               72      60/ 16/ 17 1020.3F
LONG KEY                   72 76   50/ 16/ 17 1021.6R
MOLASSES REEF              75 74   60/ 11/ 12 1020.3F

$$
FLZ067-068-071>074-168-172>174-280800-
SOUTHEAST FLORIDA

CITY           SKY/WX    TMP DP  RH WIND       PRES   REMARKS
W PALM BEACH   MOCLDY    72  68  87 E12       30.16F
FT LAUDER-EXEC LGT RAIN  73  71  93 E13       30.15F
FT LAUDERDALE  PTCLDY    73  69  87 E12       30.14F
POMPANO BEACH  MOCLDY    73  68  84 E15       30.15F
PEMBROKE PINES MOCLDY    73  69  87 E7        30.16F
OPA LOCKA      CLOUDY    71  67  87 E5        30.15F
MIAMI          MOCLDY    72  67  84 NE3       30.15F
WEST KENDALL   CLOUDY    66  64  93 CALM      30.15F
HOMESTEAD      LGT RAIN  68  64  88 N5        30.14F

STATION/POSITION SKY/WX   TEMP    WIND        PRES    WAVE   SWELL
                          AIR SEA DIR/SP/G            HT/PER HT/PER
                          (F)     (DEG/KT/KT) (MB)    (FT/S) (FT/S)
PORT EVERGLADES            74      80/  8/ 12 1020.9
VIRGINIA KEY               75 74   70/ 13/ 16 1020.4F
LAKE WORTH                 73 72   70/ 17/ 19 1021.1F
SETTLEMENT POINT           72      80/ 18/ 20 1022.3F

$$




USA.gov is the U.S. government's official web portal to all federal, state and local government web resources and services.